Retour au catalogue

HEBI-5

ActifScienceSSO
NORAD 61871·PAYLOAD·🇨🇳 China
Ce nom de satellite n'a pas encore été confirmé par des sources officielles.

Lancé Nov 9, 2024 depuis Jiuquan Satellite Launch Center

Loading…

Prochains Passages (prochaines 24 heures)

TLE

FraisSource: Space-Track

Époque: Sep 14, 2026, 22:49 UTC

1 61871U 24203C   26257.95127587  .00009242  00000-0  35850-3 0  9991
2 61871  97.4151 326.5103 0011685  36.1212 324.0814 15.26276969102556

Suivez HEBI-5 en temps réel avec AllMySat

Download on the App Store